Multibeam Report for AT29-04


Ship Name: Atlantis
Chief Scientist: Van Dover, Cindy
College of William & Mary
Source Organization: Rolling Deck to Repository
Start Date: 2015-07-08
End Date: 2015-07-28


View ISO Metadata

Visit the full NCEI Bathymetry Viewer


Multibeam Bathymetry

Cruise Details

Project: Connectivity in Western Atlantic Seep Populations
Instrument: Kongsberg EM122

Data Quality

Number of Files: 140
Number of Records: 354563
BATHYMETRY DATA Quantity Percentage
Number of Beams 153110160 100%
Number of Good Beams 145226637 94.85%
Number of Zero Beams 0 0%
Number of Flagged Beams 7883523 5.15%
AMPLITUDE DATA Quantity Percentage
Number of Beams 153110160 100%
Number of Good Beams 145226637 94.85%
Number of Zero Beams 0 0%
Number of Flagged Beams 7883523 5.15%
SIDESCAN DATA Quantity Percentage
Number of Pixels 363021312 100%
Number of Good Pixels 305806235 84.24%
Number of Zero Pixels 0 0%
Number of Flagged Pixels 57215077 15.76%

Navigation Totals

Total Time: 100.6933 hours
Total Track Length: 1658.2235 km
Average Speed: 16.468 km/hr (8.8920 knots)

Cruise Bounds

Northern Extent: 40.004807
Southern Extent: 32.36846
Western Extent: -76.536476
Eastern Extent: -69.12517

Limits

Minimum Sonar Depth 4.1752 Maximum Sonar Depth 7.5763
Minimum Altitude 26.0218 Maximum Altitude 3909.9058
Minimum Depth 22.4935 Maximum Depth 4645.2261
Minimum Amplitude 0 Maximum Amplitude 19
Minimum Sidescan 0 Maximum Sidescan 19.8

File Information

Full Resolution Bathymetry as collected (raw): 137

Files File Size Description
0000_20150708_200809_Atlantis.all.mb58.gz 155.19MB Kongsberg multibeam vendor format
0001_20150708_210809_Atlantis.all.mb58.gz 110.50MB Kongsberg multibeam vendor format
0002_20150708_220809_Atlantis.all.mb58.gz 95.82MB Kongsberg multibeam vendor format
0003_20150708_230809_Atlantis.all.mb58.gz 85.26MB Kongsberg multibeam vendor format
0004_20150709_000812_Atlantis.all.mb58.gz 66.94MB Kongsberg multibeam vendor format
0005_20150709_010811_Atlantis.all.mb58.gz 58.39MB Kongsberg multibeam vendor format
0006_20150709_020810_Atlantis.all.mb58.gz 53.97MB Kongsberg multibeam vendor format
0007_20150709_030811_Atlantis.all.mb58.gz 13.01MB Kongsberg multibeam vendor format
0008_20150709_032353_Atlantis.all.mb58.gz 16.06MB Kongsberg multibeam vendor format
0009_20150709_034337_Atlantis.all.mb58.gz 12.15MB Kongsberg multibeam vendor format
0010_20150709_035834_Atlantis.all.mb58.gz 11.56MB Kongsberg multibeam vendor format
0011_20150709_041251_Atlantis.all.mb58.gz 15.01MB Kongsberg multibeam vendor format
0012_20150709_053932_Atlantis.all.mb58.gz 45.82MB Kongsberg multibeam vendor format
0013_20150709_063933_Atlantis.all.mb58.gz 30.19MB Kongsberg multibeam vendor format
0014_20150709_073932_Atlantis.all.mb58.gz 30.05MB Kongsberg multibeam vendor format
0015_20150709_083929_Atlantis.all.mb58.gz 29.68MB Kongsberg multibeam vendor format
0016_20150709_101439_Atlantis.all.mb58.gz 431.8KB Kongsberg multibeam vendor format
0017_20150711_233312_Atlantis.all.mb58.gz 20.12MB Kongsberg multibeam vendor format
0018_20150712_003310_Atlantis.all.mb58.gz 18.93MB Kongsberg multibeam vendor format
0019_20150712_013314_Atlantis.all.mb58.gz 18.99MB Kongsberg multibeam vendor format
0020_20150712_023312_Atlantis.all.mb58.gz 26.39MB Kongsberg multibeam vendor format
0021_20150712_033309_Atlantis.all.mb58.gz 30.05MB Kongsberg multibeam vendor format
0022_20150712_043314_Atlantis.all.mb58.gz 29.89MB Kongsberg multibeam vendor format
0023_20150712_053312_Atlantis.all.mb58.gz 29.80MB Kongsberg multibeam vendor format
0024_20150712_063314_Atlantis.all.mb58.gz 22.50MB Kongsberg multibeam vendor format
0025_20150712_071837_Atlantis.all.mb58.gz 28.83MB Kongsberg multibeam vendor format
0026_20150712_081417_Atlantis.all.mb58.gz 29.61MB Kongsberg multibeam vendor format
0027_20150712_090543_Atlantis.all.mb58.gz 9.86MB Kongsberg multibeam vendor format
0028_20150712_092250_Atlantis.all.mb58.gz 27.70MB Kongsberg multibeam vendor format
0029_20150712_101044_Atlantis.all.mb58.gz 0.91MB Kongsberg multibeam vendor format
0030_20150712_101626_Atlantis.all.mb58.gz 3.74MB Kongsberg multibeam vendor format
0031_20150712_210959_Atlantis.all.mb58.gz 30.11MB Kongsberg multibeam vendor format
0032_20150712_221002_Atlantis.all.mb58.gz 27.90MB Kongsberg multibeam vendor format
0033_20150712_230958_Atlantis.all.mb58.gz 21.00MB Kongsberg multibeam vendor format
0034_20150713_033345_Atlantis.all.mb58.gz 12.49MB Kongsberg multibeam vendor format
0035_20150713_040214_Atlantis.all.mb58.gz 21.32MB Kongsberg multibeam vendor format
0036_20150713_045007_Atlantis.all.mb58.gz 9.75MB Kongsberg multibeam vendor format
0037_20150713_051213_Atlantis.all.mb58.gz 10.12MB Kongsberg multibeam vendor format
0038_20150714_002758_Atlantis.all.mb58.gz 3.49MB Kongsberg multibeam vendor format
0039_20150714_003546_Atlantis.all.mb58.gz 27.27MB Kongsberg multibeam vendor format
0040_20150714_013536_Atlantis.all.mb58.gz 35.59MB Kongsberg multibeam vendor format
0041_20150714_023532_Atlantis.all.mb58.gz 38.29MB Kongsberg multibeam vendor format
0042_20150714_033531_Atlantis.all.mb58.gz 36.75MB Kongsberg multibeam vendor format
0043_20150714_043531_Atlantis.all.mb58.gz 10.31MB Kongsberg multibeam vendor format
0044_20150714_124507_Atlantis.all.mb58.gz 503.41MB Kongsberg multibeam vendor format
0045_20150714_134507_Atlantis.all.mb58.gz 387.44MB Kongsberg multibeam vendor format
0046_20150714_144507_Atlantis.all.mb58.gz 312.24MB Kongsberg multibeam vendor format
0047_20150714_154507_Atlantis.all.mb58.gz 313.33MB Kongsberg multibeam vendor format
0048_20150714_164507_Atlantis.all.mb58.gz 303.18MB Kongsberg multibeam vendor format
0049_20150714_174507_Atlantis.all.mb58.gz 291.13MB Kongsberg multibeam vendor format
0050_20150714_184507_Atlantis.all.mb58.gz 196.41MB Kongsberg multibeam vendor format
0051_20150714_194507_Atlantis.all.mb58.gz 202.54MB Kongsberg multibeam vendor format
0052_20150714_204507_Atlantis.all.mb58.gz 19.96MB Kongsberg multibeam vendor format
0053_20150714_205016_Atlantis.all.mb58.gz 164.88MB Kongsberg multibeam vendor format
0054_20150714_215016_Atlantis.all.mb58.gz 280.73MB Kongsberg multibeam vendor format
0055_20150714_225017_Atlantis.all.mb58.gz 133.73MB Kongsberg multibeam vendor format
0056_20150714_234238_Atlantis.all.mb58.gz 22.72MB Kongsberg multibeam vendor format
0057_20150714_235832_Atlantis.all.mb58.gz 0.68MB Kongsberg multibeam vendor format
0058_20150714_235914_Atlantis.all.mb58.gz 93.98MB Kongsberg multibeam vendor format
0059_20150715_005914_Atlantis.all.mb58.gz 138.37MB Kongsberg multibeam vendor format
0060_20150715_015913_Atlantis.all.mb58.gz 116.73MB Kongsberg multibeam vendor format
0061_20150715_025914_Atlantis.all.mb58.gz 77.37MB Kongsberg multibeam vendor format
0062_20150715_035915_Atlantis.all.mb58.gz 65.03MB Kongsberg multibeam vendor format
0063_20150715_045915_Atlantis.all.mb58.gz 32.38MB Kongsberg multibeam vendor format
0064_20150715_053117_Atlantis.all.mb58.gz 62.95MB Kongsberg multibeam vendor format
0065_20150715_063115_Atlantis.all.mb58.gz 60.05MB Kongsberg multibeam vendor format
0066_20150715_073116_Atlantis.all.mb58.gz 93.4KB Kongsberg multibeam vendor format
0067_20150715_073121_Atlantis.all.mb58.gz 9.32MB Kongsberg multibeam vendor format
0068_20150715_074050_Atlantis.all.mb58.gz 47.36MB Kongsberg multibeam vendor format
0069_20150715_083030_Atlantis.all.mb58.gz 10.46MB Kongsberg multibeam vendor format
0071_20150715_103511_Atlantis.all.mb58.gz 0.55MB Kongsberg multibeam vendor format
0072_20150715_103641_Atlantis.all.mb58.gz 13.70MB Kongsberg multibeam vendor format
0073_20150716_004620_Atlantis.all.mb58.gz 27.98MB Kongsberg multibeam vendor format
0074_20150716_011509_Atlantis.all.mb58.gz 61.98MB Kongsberg multibeam vendor format
0075_20150716_021507_Atlantis.all.mb58.gz 61.91MB Kongsberg multibeam vendor format
0076_20150716_031510_Atlantis.all.mb58.gz 59.87MB Kongsberg multibeam vendor format
0077_20150716_041508_Atlantis.all.mb58.gz 60.49MB Kongsberg multibeam vendor format
0078_20150716_051505_Atlantis.all.mb58.gz 58.68MB Kongsberg multibeam vendor format
0079_20150716_061507_Atlantis.all.mb58.gz 16.76MB Kongsberg multibeam vendor format
0080_20150717_090157_Atlantis.all.mb58.gz 59.05MB Kongsberg multibeam vendor format
0081_20150717_100159_Atlantis.all.mb58.gz 61.91MB Kongsberg multibeam vendor format
0082_20150717_110157_Atlantis.all.mb58.gz 67.20MB Kongsberg multibeam vendor format
0083_20150717_120159_Atlantis.all.mb58.gz 0.95MB Kongsberg multibeam vendor format
0084_20150718_212341_Atlantis.all.mb58.gz 0.79MB Kongsberg multibeam vendor format
0085_20150718_212424_Atlantis.all.mb58.gz 74.53MB Kongsberg multibeam vendor format
0086_20150718_222425_Atlantis.all.mb58.gz 63.07MB Kongsberg multibeam vendor format
0087_20150718_232422_Atlantis.all.mb58.gz 59.68MB Kongsberg multibeam vendor format
0088_20150719_002427_Atlantis.all.mb58.gz 33.69MB Kongsberg multibeam vendor format
0089_20150719_111234_Atlantis.all.mb58.gz 59.13MB Kongsberg multibeam vendor format
0090_20150719_121234_Atlantis.all.mb58.gz 35.09MB Kongsberg multibeam vendor format
0091_20150719_232616_Atlantis.all.mb58.gz 56.36MB Kongsberg multibeam vendor format
0092_20150720_102344_Atlantis.all.mb58.gz 99.4KB Kongsberg multibeam vendor format
0093_20150720_102404_Atlantis.all.mb58.gz 87.23MB Kongsberg multibeam vendor format
0094_20150720_112403_Atlantis.all.mb58.gz 112.00MB Kongsberg multibeam vendor format
0095_20150720_122403_Atlantis.all.mb58.gz 100.17MB Kongsberg multibeam vendor format
0096_20150720_132402_Atlantis.all.mb58.gz 51.77MB Kongsberg multibeam vendor format
0097_20150722_034518_Atlantis.all.mb58.gz 140.28MB Kongsberg multibeam vendor format
0098_20150722_044518_Atlantis.all.mb58.gz 101.64MB Kongsberg multibeam vendor format
0099_20150722_054517_Atlantis.all.mb58.gz 121.79MB Kongsberg multibeam vendor format
0100_20150722_064518_Atlantis.all.mb58.gz 135.63MB Kongsberg multibeam vendor format
0101_20150722_074518_Atlantis.all.mb58.gz 120.16MB Kongsberg multibeam vendor format
0102_20150722_084517_Atlantis.all.mb58.gz 115.49MB Kongsberg multibeam vendor format
0103_20150722_094518_Atlantis.all.mb58.gz 114.28MB Kongsberg multibeam vendor format
0104_20150722_104517_Atlantis.all.mb58.gz 127.84MB Kongsberg multibeam vendor format
0105_20150722_114517_Atlantis.all.mb58.gz 177.79MB Kongsberg multibeam vendor format
0106_20150722_124518_Atlantis.all.mb58.gz 94.21MB Kongsberg multibeam vendor format
0107_20150722_134517_Atlantis.all.mb58.gz 77.78MB Kongsberg multibeam vendor format
0109_20150722_214850_Atlantis.all.mb58.gz 196.51MB Kongsberg multibeam vendor format
0110_20150722_224853_Atlantis.all.mb58.gz 100.90MB Kongsberg multibeam vendor format
0111_20150722_234851_Atlantis.all.mb58.gz 111.26MB Kongsberg multibeam vendor format
0112_20150723_004851_Atlantis.all.mb58.gz 103.85MB Kongsberg multibeam vendor format
0113_20150723_014851_Atlantis.all.mb58.gz 102.58MB Kongsberg multibeam vendor format
0114_20150723_024852_Atlantis.all.mb58.gz 104.96MB Kongsberg multibeam vendor format
0115_20150723_034851_Atlantis.all.mb58.gz 105.81MB Kongsberg multibeam vendor format
0116_20150723_044850_Atlantis.all.mb58.gz 114.16MB Kongsberg multibeam vendor format
0117_20150723_054854_Atlantis.all.mb58.gz 105.33MB Kongsberg multibeam vendor format
0118_20150723_064851_Atlantis.all.mb58.gz 123.23MB Kongsberg multibeam vendor format
0119_20150723_074852_Atlantis.all.mb58.gz 77.46MB Kongsberg multibeam vendor format
0120_20150723_084851_Atlantis.all.mb58.gz 20.19MB Kongsberg multibeam vendor format
0121_20150723_200537_Atlantis.all.mb58.gz 35.23MB Kongsberg multibeam vendor format
0122_20150723_203930_Atlantis.all.mb58.gz 6.71MB Kongsberg multibeam vendor format
0123_20150723_204618_Atlantis.all.mb58.gz 9.92MB Kongsberg multibeam vendor format
0124_20150724_091724_Atlantis.all.mb58.gz 12.53MB Kongsberg multibeam vendor format
0125_20150724_093010_Atlantis.all.mb58.gz 58.36MB Kongsberg multibeam vendor format
0126_20150724_103014_Atlantis.all.mb58.gz 78.50MB Kongsberg multibeam vendor format
0127_20150724_113012_Atlantis.all.mb58.gz 35.78MB Kongsberg multibeam vendor format
0128_20150724_153408_Atlantis.all.mb58.gz 31.86MB Kongsberg multibeam vendor format
0129_20150724_222817_Atlantis.all.mb58.gz 70.26MB Kongsberg multibeam vendor format
0130_20150724_232822_Atlantis.all.mb58.gz 7.16MB Kongsberg multibeam vendor format
0131_20150725_224712_Atlantis.all.mb58.gz 18.00MB Kongsberg multibeam vendor format
0132_20150726_012559_Atlantis.all.mb58.gz 3.69MB Kongsberg multibeam vendor format
0133_20150726_012947_Atlantis.all.mb58.gz 1.56MB Kongsberg multibeam vendor format
0134_20150726_103925_Atlantis.all.mb58.gz 81.09MB Kongsberg multibeam vendor format
0135_20150726_202854_Atlantis.all.mb58.gz 75.81MB Kongsberg multibeam vendor format
0136_20150726_212855_Atlantis.all.mb58.gz 2.43MB Kongsberg multibeam vendor format
0137_20150727_233901_Atlantis.all.mb58.gz 148.36MB Kongsberg multibeam vendor format
9999_150723195047_tmp.all.mb58.gz 85.3KB Kongsberg multibeam vendor format

Metadata Files: 2

Files File Size Description
AT29-04_Multibeam.xml NGDC created ISO metadata
em122_bag_info.tar.gz 12.3KB Additional cruise information

Water Column Sonar Data

Water Column Sonar Data Available: WCSD Map Viewer